Aérodrome de Castelnaudary-Villeneuve

LFMW · Occitanie, Francja

2 października 2022

Czas Kod Pogoda Temp. Widoczność Sufit Wiatr METAR/SPECI
05:30
V
13 °C 10 km+ - 110° 110° 1 kt METAR LFBO 020330Z AUTO 11001KT CAVOK 13/12 Q1026 TEMPO 0600 FG VV///
05:00
V
13 °C 10 km+ - Var Var 1 kt METAR LFBO 020300Z AUTO VRB01KT CAVOK 13/12 Q1026 TEMPO 0600 FG VV///
04:30
V
13 °C 10 km+ - 200° 200° 2 kt METAR LFBO 020230Z AUTO 20002KT CAVOK 13/12 Q1026 TEMPO 0600 FG VV///
04:00
V
13 °C 10 km+ - 180° 180° 2 kt METAR LFBO 020200Z AUTO 18002KT CAVOK 13/12 Q1027 TEMPO 0600 FG VV///
03:30
V
13 °C 10 km+ - 160° 160° 2 kt METAR LFBO 020130Z AUTO 16002KT CAVOK 13/13 Q1027 TEMPO 0600 FG VV///
03:00
V
13 °C 10 km+ - Var Var 2 kt METAR LFBO 020100Z AUTO VRB02KT CAVOK 13/12 Q1027 TEMPO 0600 FG VV///
02:30
V
13 °C 10 km+ - Var Var 3 kt METAR LFBO 020030Z AUTO VRB03KT CAVOK 13/12 Q1027 TEMPO 0600 FG VV///
02:00
V
13 °C 10 km+ - 200° 200° 4 kt METAR LFBO 020000Z AUTO 20004KT CAVOK 13/12 Q1027 TEMPO 3000 BR BECMG BKN012
01:30
V
14 °C 10 km+ - 210° 210° 4 kt METAR LFBO 012330Z AUTO 21004KT CAVOK 14/12 Q1027 TEMPO 3000 BR BECMG BKN012
01:00
V
15 °C 10 km+ - Var Var 2 kt METAR LFBO 012300Z AUTO VRB02KT CAVOK 15/13 Q1027 BECMG BKN008
00:30
V
15 °C 10 km+ - Var Var 2 kt METAR LFBO 012230Z AUTO VRB02KT CAVOK 15/13 Q1027 BECMG BKN008
00:00
V
16 °C 10 km+ - Var Var 2 kt METAR LFBO 012200Z AUTO VRB02KT CAVOK 16/13 Q1027 NOSIG

1 października 2022

Czas Kod Pogoda Temp. Widoczność Sufit Wiatr METAR/SPECI
23:30
V
16 °C 10 km+ - 250° 250° 3 kt METAR LFBO 012130Z AUTO 25003KT CAVOK 16/13 Q1027 NOSIG
23:00
V
17 °C 10 km+ - 230° 230° 5 kt METAR LFBO 012100Z AUTO 23005KT CAVOK 17/13 Q1027 NOSIG
22:30
V
17 °C 10 km+ - 260° 260° 3 kt METAR LFBO 012030Z AUTO 26003KT CAVOK 17/13 Q1027 NOSIG
22:00
V
18 °C 10 km+ - 270° 270° 4 kt METAR LFBO 012000Z AUTO 27004KT CAVOK 18/13 Q1027 NOSIG
21:30
V
18 °C 10 km+ - Var Var 1 kt METAR LFBO 011930Z AUTO VRB01KT CAVOK 18/13 Q1027 NOSIG
21:00
V
19 °C 10 km+ - 310° 310° 3 kt METAR LFBO 011900Z AUTO 31003KT 280V350 CAVOK 19/13 Q1026 NOSIG
20:30
V
19 °C 10 km+ - 300° 300° 5 kt METAR LFBO 011830Z AUTO 30005KT CAVOK 19/13 Q1026 NOSIG
20:00
V
20 °C 10 km+ - 290° 290° 9 kt METAR LFBO 011800Z AUTO 29009KT 9999 FEW040 20/13 Q1026 NOSIG
19:30
V
21 °C 10 km+ - 290° 290° 10 kt METAR LFBO 011730Z AUTO 29010KT 9999 FEW039 SCT094 21/13 Q1025 NOSIG
19:00
V
22 °C 10 km+ 9.200 ft 290° 290° 11 kt METAR LFBO 011700Z AUTO 29011KT 9999 FEW039 BKN092 22/13 Q1025 NOSIG
18:30
V
23 °C 10 km+ 9.000 ft 280° 280° 14 kt METAR LFBO 011630Z AUTO 28014KT 9999 SCT046 BKN090 23/13 Q1025 BECMG VRB03KT
18:00
V
23 °C 10 km+ 9.200 ft 280° 280° 13 kt METAR LFBO 011600Z AUTO 28013KT 9999 FEW043 BKN092 23/13 Q1024 NOSIG
17:30
V
24 °C 10 km+ - 280° 280° 14 kt METAR LFBO 011530Z AUTO 28014KT 9999 FEW042 24/13 Q1024 NOSIG
17:00
V
24 °C 10 km+ 5.800 ft 280° 280° 15 kt METAR LFBO 011500Z AUTO 28015KT 9999 SCT045 BKN058 24/13 Q1024 NOSIG
16:30
V
23 °C 10 km+ 4.200 ft 280° 280° 13 kt METAR LFBO 011430Z AUTO 28013KT 9999 BKN042 BKN054 23/13 Q1024 NOSIG
16:00
V
23 °C 10 km+ 4.100 ft 280° 280° 11 kt METAR LFBO 011400Z AUTO 28011KT 9999 BKN041 BKN048 23/14 Q1024 NOSIG
15:30
V
23 °C 10 km+ 4.300 ft 280° 280° 13 kt METAR LFBO 011330Z AUTO 28013KT 9999 BKN043 23/13 Q1024 NOSIG
15:00
V
23 °C 10 km+ 4.100 ft 270° 270° 13 kt METAR LFBO 011300Z AUTO 27013KT 250V310 9999 BKN041 23/13 Q1023 TEMPO 28015G25KT
14:30
V
24 °C 10 km+ 3.900 ft 270° 270° 12 kt METAR LFBO 011230Z AUTO 27012KT 240V300 9999 BKN039 24/13 Q1023 TEMPO 28015G25KT
14:00
V
23 °C 10 km+ 3.600 ft 260° 260° 13 kt METAR LFBO 011200Z AUTO 26013KT 9999 BKN036 23/12 Q1024 TEMPO 28015G25KT
13:30
V
22 °C 10 km+ - 280° 280° 15 kt METAR LFBO 011130Z AUTO 28015KT 9999 FEW035 SCT098 22/12 Q1024 NOSIG
13:00
V
21 °C 10 km+ 3.800 ft 270° 270° 16 kt METAR LFBO 011100Z AUTO 27016KT 9999 BKN038 OVC098 21/12 Q1023 NOSIG
12:30
V
21 °C 10 km+ 3.800 ft 270° 270° 16 kt METAR LFBO 011030Z AUTO 27016KT 9999 FEW031 BKN038 21/11 Q1024 NOSIG
12:00
V
20 °C 10 km+ 6.600 ft 270° 270° 9 kt METAR LFBO 011000Z AUTO 27009KT 240V310 9999 SCT044 SCT056 BKN066 20/10 Q1024 NOSIG
11:30
V
18 °C 10 km+ 4.800 ft 240° 240° 4 kt METAR LFBO 010930Z AUTO 24004KT 200V280 9999 OVC048 18/10 Q1023 NOSIG
11:00
V
17 °C 10 km+ 5.800 ft 220° 220° 5 kt METAR LFBO 010900Z AUTO 22005KT 190V250 9999 FEW008 BKN058 OVC068 17/09 Q1023 NOSIG
10:30
V
16 °C 10 km+ 7.000 ft 210° 210° 6 kt METAR LFBO 010830Z AUTO 21006KT 160V240 9999 FEW009 BKN070 BKN088 16/09 Q1023 NOSIG
10:00
V
14 °C 10 km+ 12.000 ft 210° 210° 6 kt METAR LFBO 010800Z AUTO 21006KT 9999 FEW007 SCT096 OVC120 14/09 Q1023 BECMG 27012KT
09:30
V
13 °C 10 km+ 8.800 ft 190° 190° 8 kt METAR LFBO 010730Z AUTO 19008KT 9999 FEW008 SCT076 BKN088 13/09 Q1023 BECMG 27012KT
09:00
V
12 °C 10 km+ - 190° 190° 5 kt METAR LFBO 010700Z AUTO 19005KT CAVOK 12/09 Q1022 NOSIG
08:30
V
11 °C 10 km+ 9.200 ft 180° 180° 7 kt METAR LFBO 010630Z AUTO 18007KT 9999 FEW007 BKN092 OVC160 11/09 Q1022 NOSIG
08:00
V
11 °C 10 km+ 9.200 ft 180° 180° 4 kt METAR LFBO 010600Z AUTO 18004KT 9999 FEW008 OVC092 11/09 Q1022 NOSIG
07:30
V
11 °C 10 km+ 9.800 ft 190° 190° 5 kt METAR LFBO 010530Z AUTO 19005KT 9999 FEW007 BKN098 BKN180 11/09 Q1022 NOSIG
07:00
V
10 °C 10 km+ 12.000 ft 190° 190° 4 kt METAR LFBO 010500Z AUTO 19004KT 9999 FEW009 BKN120 BKN180 10/08 Q1021 NOSIG
06:30
V
10 °C 10 km+ 13.000 ft 190° 190° 3 kt METAR LFBO 010430Z AUTO 19003KT 9999 FEW007 SCT100 BKN130 10/09 Q1021 NOSIG
06:00
V
10 °C 10 km+ - 180° 180° 4 kt METAR LFBO 010400Z AUTO 18004KT CAVOK 10/09 Q1021 NOSIG
05:30
V
10 °C 10 km+ - 170° 170° 3 kt METAR LFBO 010330Z AUTO 17003KT CAVOK 10/09 Q1021 NOSIG
05:00
V
10 °C 10 km+ - 170° 170° 3 kt METAR LFBO 010300Z AUTO 17003KT CAVOK 10/08 Q1021 NOSIG
04:30
V
9 °C 10 km+ - 150° 150° 3 kt METAR LFBO 010230Z AUTO 15003KT CAVOK 09/08 Q1020 NOSIG
04:00
V
9 °C 10 km+ - 170° 170° 4 kt METAR LFBO 010200Z AUTO 17004KT CAVOK 09/08 Q1020 TEMPO 4000 BR
03:30
V
9 °C 10 km+ - 170° 170° 4 kt METAR LFBO 010130Z AUTO 17004KT CAVOK 09/08 Q1020 TEMPO 4000 BR
03:00
V
10 °C 10 km+ - 180° 180° 3 kt METAR LFBO 010100Z AUTO 18003KT CAVOK 10/08 Q1021 TEMPO 4000 BR
02:30
V
10 °C 10 km+ - 190° 190° 5 kt METAR LFBO 010030Z AUTO 19005KT CAVOK 10/08 Q1020 TEMPO 4000 BR
02:00
V
12 °C 10 km+ - 250° 250° 5 kt METAR LFBO 010000Z AUTO 25005KT CAVOK 12/08 Q1020 TEMPO 4000 BR
01:30
V
12 °C 10 km+ - 260° 260° 9 kt METAR LFBO 302330Z AUTO 26009KT CAVOK 12/09 Q1020 TEMPO 4000 BR
01:00
V
13 °C 10 km+ - 270° 270° 10 kt METAR LFBO 302300Z AUTO 27010KT CAVOK 13/08 Q1020 NOSIG
00:30
V
13 °C 10 km+ - 280° 280° 6 kt METAR LFBO 302230Z AUTO 28006KT CAVOK 13/08 Q1020 NOSIG
00:00
V
13 °C 10 km+ - 270° 270° 9 kt METAR LFBO 302200Z AUTO 27009KT CAVOK 13/08 Q1020 NOSIG

30 września 2022

Czas Kod Pogoda Temp. Widoczność Sufit Wiatr METAR/SPECI
23:30
V
13 °C 10 km+ - 270° 270° 11 kt METAR LFBO 302130Z AUTO 27011KT CAVOK 13/08 Q1019 NOSIG
23:00
V
14 °C 10 km+ - 260° 260° 11 kt METAR LFBO 302100Z AUTO 26011KT CAVOK 14/08 Q1019 NOSIG
22:30
V
14 °C 10 km+ - 260° 260° 8 kt METAR LFBO 302030Z AUTO 26008KT CAVOK 14/07 Q1019 NOSIG
22:00
V
14 °C 10 km+ - 270° 270° 7 kt METAR LFBO 302000Z AUTO 27007KT CAVOK 14/08 Q1019 NOSIG
21:30
V
14 °C 10 km+ - 280° 280° 8 kt METAR LFBO 301930Z AUTO 28008KT CAVOK 14/07 Q1018 NOSIG
21:00
V
14 °C 10 km+ - 270° 270° 6 kt METAR LFBO 301900Z AUTO 27006KT CAVOK 14/08 Q1018 NOSIG
20:30
V
14 °C 10 km+ - 280° 280° 6 kt METAR LFBO 301830Z AUTO 28006KT 250V310 CAVOK 14/07 Q1017 NOSIG
20:00
V
15 °C 10 km+ - 300° 300° 7 kt METAR LFBO 301800Z AUTO 30007KT CAVOK 15/08 Q1017 NOSIG
19:30
V
16 °C 10 km+ - 300° 300° 8 kt METAR LFBO 301730Z AUTO 30008KT CAVOK 16/08 Q1017 NOSIG
19:00
V
17 °C 10 km+ - 310° 310° 10 kt METAR LFBO 301700Z AUTO 31010KT CAVOK 17/07 Q1016 NOSIG
18:30
V
18 °C 10 km+ - 310° 310° 10 kt METAR LFBO 301630Z AUTO 31010KT 9999 FEW049 SCT076 18/07 Q1016 NOSIG
18:00
V
18 °C 10 km+ 7.200 ft 320° 320° 13 kt METAR LFBO 301600Z AUTO 32013KT 9999 FEW049 BKN072 18/07 Q1016 NOSIG
17:30
V
19 °C 10 km+ - 310° 310° 12 kt METAR LFBO 301530Z AUTO 31012KT 9999 FEW048 SCT064 19/07 Q1015 NOSIG
17:00
V
19 °C 10 km+ 7.800 ft 310° 310° 11 kt METAR LFBO 301500Z AUTO 31011KT 260V340 9999 FEW047 BKN078 19/07 Q1015 NOSIG
16:30
V
19 °C 10 km+ 7.000 ft 310° 310° 14 kt METAR LFBO 301430Z AUTO 31014KT 9999 FEW016 SCT046 BKN070 19/08 Q1015 NOSIG
16:00
V
18 °C 10 km+ 7.600 ft 300° 300° 14 kt METAR LFBO 301400Z AUTO 30014KT 260V320 9999 FEW045 SCT056 BKN076 18/07 Q1015 NOSIG
15:30
V
18 °C 10 km+ 6.400 ft 290° 290° 13 kt METAR LFBO 301330Z AUTO 29013KT 250V330 9999 SCT044 BKN064 BKN078 18/08 Q1015 NOSIG
15:00
V
19 °C 10 km+ 5.400 ft 310° 310° 13 kt METAR LFBO 301300Z AUTO 31013KT 9999 SCT040 SCT047 BKN054 19/08 Q1015 NOSIG
14:30
V
17 °C 10 km+ 4.600 ft 290° 290° 12 kt METAR LFBO 301230Z AUTO 29012KT 9999 SCT038 BKN046 BKN072 17/07 Q1015 NOSIG
14:00
V
17 °C 10 km+ 4.500 ft 300° 300° 11 kt METAR LFBO 301200Z AUTO 30011KT 260V330 9999 FEW016 SCT035 BKN045 17/08 Q1015 NOSIG
13:30
V
16 °C 10 km+ 5.600 ft 310° 310° 10 kt METAR LFBO 301130Z AUTO 31010KT 270V340 9999 SCT031 SCT046 BKN056 16/09 Q1015 NOSIG
13:00
M
16 °C 10 km+ 2.600 ft 320° 320° 9 kt METAR LFBO 301100Z AUTO 32009KT 280V350 9999 BKN026 BKN033 BKN062 16/09 Q1015 NOSIG
12:30
M
15 °C 10 km+ 2.300 ft 290° 290° 9 kt METAR LFBO 301030Z AUTO 29009KT 240V330 9999 BKN023 15/10 Q1015 NOSIG
12:00
M
14 °C 10 km+ 2.100 ft 270° 270° 10 kt METAR LFBO 301000Z AUTO 27010KT 9999 SCT016 BKN021 BKN027 14/11 Q1015 NOSIG
11:30
M
13 °C 10 km+ 1.300 ft 300° 300° 7 kt METAR LFBO 300930Z AUTO 30007KT 270V330 9999 BKN013 13/11 Q1014 BECMG NSC
11:00
I
12 °C 10 km+ 900 ft 290° 290° 8 kt METAR LFBO 300900Z AUTO 29008KT 250V310 9999 BKN009 OVC014 12/11 Q1014 TEMPO BKN006 SCT017TCU
10:30
I
12 °C 10 km+ 900 ft 310° 310° 8 kt METAR LFBO 300830Z AUTO 31008KT 9999 BKN009/// BKN027/// BKN054/// ///TCU 12/11 Q1014 BECMG NSC
10:00
V
12 °C 10 km+ 3.000 ft 300° 300° 11 kt METAR LFBO 300800Z AUTO 30011KT 9999 -RA SCT010/// BKN030/// BKN045/// ///TCU 12/10 Q1013 TEMPO BKN006 SCT017TCU
09:30
V
12 °C 10 km+ 9.000 ft 310° 310° 9 kt METAR LFBO 300730Z AUTO 31009KT 9999 FEW010/// SCT058/// OVC090/// //////TCU 12/10 Q1013 TEMPO BKN006 SCT017TCU
09:00
V
11 °C 10 km+ 6.200 ft 300° 300° 9 kt METAR LFBO 300700Z AUTO 30009KT 9999 FEW009/// SCT047/// BKN062/// //////CB 11/10 Q1012 TEMPO BKN006 SCT017TCU
08:30
V
11 °C 10 km+ 8.800 ft 290° 290° 11 kt METAR LFBO 300630Z AUTO 29011KT 9999 SCT009 SCT070 OVC088 11/10 Q1012 TEMPO BKN006 SCT017TCU
08:00
V
11 °C 10 km+ - 300° 300° 10 kt METAR LFBO 300600Z AUTO 30010KT CAVOK 11/10 Q1011
07:30
V
11 °C 10 km+ - 280° 280° 13 kt METAR LFBO 300530Z AUTO 28013KT CAVOK 11/10 Q1011
07:00
V
12 °C 10 km+ - 270° 270° 10 kt METAR LFBO 300500Z AUTO 27010KT CAVOK 12/10 Q1010
06:30
V
12 °C 10 km+ - 280° 280° 9 kt METAR LFBO 300430Z AUTO 28009KT CAVOK 12/10 Q1010
06:00
V
11 °C 10 km+ - 270° 270° 11 kt METAR LFBO 300400Z AUTO 27011KT CAVOK 11/10 Q1010
05:30
V
11 °C 10 km+ - 270° 270° 10 kt METAR LFBO 300330Z AUTO 27010KT CAVOK 11/10 Q1009
05:00
V
11 °C 10 km+ - 270° 270° 9 kt METAR LFBO 300300Z AUTO 27009KT CAVOK 11/10 Q1009
04:30
V
11 °C 10 km+ - 280° 280° 9 kt METAR LFBO 300230Z AUTO 28009KT CAVOK 11/10 Q1009
04:00
V
11 °C 10 km+ - 270° 270° 10 kt METAR LFBO 300200Z AUTO 27010KT CAVOK 11/10 Q1009
03:30
V
11 °C 10 km+ - 270° 270° 9 kt METAR LFBO 300130Z AUTO 27009KT CAVOK 11/10 Q1009
03:00
V
11 °C 10 km+ - 280° 280° 8 kt METAR LFBO 300100Z AUTO 28008KT CAVOK 11/10 Q1009
02:30
V
12 °C 10 km+ - 280° 280° 9 kt METAR LFBO 300030Z AUTO 28009KT CAVOK 12/10 Q1009
02:00
V
12 °C 10 km+ - 280° 280° 8 kt METAR LFBO 300000Z AUTO 28008KT CAVOK 12/11 Q1009
01:30
V
12 °C 10 km+ 22.000 ft 280° 280° 9 kt METAR LFBO 292330Z AUTO 28009KT 9999 FEW012 SCT054 OVC220 12/11 Q1009
01:00
V
12 °C 10 km+ 21.000 ft 290° 290° 7 kt METAR LFBO 292300Z AUTO 29007KT 9999 FEW008 OVC210 12/11 Q1008
00:30
V
12 °C 10 km+ 5.600 ft 280° 280° 6 kt METAR LFBO 292230Z AUTO 28006KT 9999 FEW009 BKN056 BKN100 12/11 Q1008
00:00
V
12 °C 10 km+ 11.000 ft 300° 300° 6 kt METAR LFBO 292200Z AUTO 30006KT 9999 FEW014 SCT080 BKN110 12/12 Q1008
Starsze dane

My i osoby trzecie śledzimy twoje zachowanie w internecie na naszej stronie za pomocą plików cookie. Jeśli kontynuujesz, zakładamy, że zgadzasz się z naszą polityką plików cookie. Dowiedz się więcej